Вернуться в каталог

STARLINK-32813

АктивенСвязьVLEO
NORAD 62869·PAYLOAD·🇺🇸 United States

Запущен Feb 1, 2025 с Vandenberg Space Force Base

Loading…

Ближайшие Пролёты (ближайшие 24 часа)

TLE

СвежийSource: CelesTrak SupGP

Эпоха: Sep 14, 2026, 21:01 UTC

1 62869C 25022R   26257.87618056 -.00013685  00000+0 -40428-3 0  2577
2 62869  53.1599 327.9675 0001237  79.8079  16.0877 15.34401715    18

Отслеживайте STARLINK-32813 в реальном времени с AllMySat

Download on the App Store